NK0V Weather Reports


Display with metric or nautical units.
time (UTC)temp
F
wind
direction
speed
MPH
gust
MPH
rain 1hr
in
rain 24hr
in
rain mn
in
humidity
%
barometer
mb
20260905154617 72 103 0.0 4.0 0.00 0.24 0.24 79 1015.5
20260905154056 71 0 0.0 6.0 0.00 0.24 0.24 79 1015.3
20260905153558 71 0 1.0 6.0 0.00 0.24 0.24 80 1015.5
20260905153113 70 96 0.0 3.0 0.00 0.24 0.24 80 1015.4
20260905152559 70 0 0.0 4.0 0.00 0.24 0.24 81 1015.3
20260905152059 70 102 1.0 4.0 0.00 0.24 0.24 80 1015.3
20260905151613 70 96 1.0 4.0 0.00 0.24 0.24 80 1015.4
20260905151059 69 120 1.0 4.0 0.00 0.24 0.24 80 1015.5
20260905150556 69 101 2.0 4.0 0.00 0.24 0.24 80 1015.6
20260905150100 69 83 1.0 3.0 0.00 0.24 0.24 80 1015.6
20260905145556 69 0 0.0 2.0 0.00 0.24 0.24 80 1015.6
20260905145056 69 88 0.0 4.0 0.00 0.24 0.24 80 1015.7
20260905144603 69 0 1.0 4.0 0.00 0.24 0.24 78 1015.7
20260905144057 68 0 0.0 4.0 0.00 0.24 0.24 79 1015.6
20260905143559 68 0 0.0 4.0 0.00 0.24 0.24 80 1015.4
20260905143101 68 112 0.0 6.0 0.00 0.24 0.24 79 1015.2
20260905142557 68 116 0.0 7.0 0.00 0.24 0.24 79 1014.9
20260905142058 68 119 2.0 8.0 0.00 0.24 0.24 80 1014.9
20260905141601 68 134 3.0 8.0 0.00 0.24 0.24 80 1014.7
20260905141056 68 213 3.0 8.0 0.00 0.24 0.24 80 1014.9
20260905140559 68 115 2.0 12.0 0.00 0.24 0.24 81 1015.3
20260905135558 67 185 4.0 8.0 0.00 0.24 0.24 81 1016.1
20260905135058 67 207 2.0 7.0 0.00 0.24 0.24 82 1016.1
20260905134601 67 0 1.0 7.0 0.00 0.24 0.24 82 1016.0
20260905134103 67 203 3.0 7.0 0.00 0.24 0.24 82 1016.4
20260905133555 67 195 3.0 8.0 0.00 0.24 0.24 83 1016.4
20260905133111 67 202 2.0 9.0 0.01 0.24 0.24 83 1016.3
20260905132558 67 232 2.0 9.0 0.03 0.24 0.24 83 1016.6
20260905132059 67 301 2.0 10.0 0.04 0.24 0.24 83 1016.4
20260905131607 67 200 2.0 10.0 0.06 0.24 0.24 83 1016.5
20260905131102 67 126 3.0 9.0 0.08 0.24 0.24 83 1015.9
20260905130555 67 128 3.0 10.0 0.09 0.24 0.24 83 1016.0
20260905130059 68 124 3.0 11.0 0.11 0.24 0.24 83 1015.8
20260905125558 68 136 3.0 11.0 0.12 0.24 0.24 83 1016.1
20260905125058 68 147 3.0 14.0 0.14 0.24 0.24 83 1016.7
20260905124602 68 142 2.0 14.0 0.15 0.24 0.24 83 1017.0
20260905124058 68 167 5.0 11.0 0.17 0.24 0.24 83 1016.8
20260905123555 69 132 5.0 11.0 0.18 0.24 0.24 83 1016.7
20260905123103 69 170 4.0 11.0 0.17 0.23 0.23 83 1017.2
20260905122555 69 120 3.0 15.0 0.16 0.21 0.21 83 1018.0
20260905122102 70 161 5.0 15.0 0.16 0.20 0.20 83 1018.7
20260905121605 70 167 3.0 8.0 0.14 0.18 0.18 83 1018.9
20260905121058 70 239 2.0 12.0 0.13 0.16 0.16 84 1019.0
20260905120602 70 232 3.0 14.0 0.11 0.14 0.14 84 1019.1
20260905120100 70 263 7.0 14.0 0.11 0.13 0.13 84 1018.9
20260905115558 71 257 5.0 12.0 0.10 0.12 0.12 86 1018.7
20260905115058 71 261 4.0 8.0 0.09 0.10 0.10 88 1018.7
20260905114601 72 209 3.0 8.0 0.08 0.09 0.09 89 1018.5
20260905114102 72 272 3.0 9.0 0.06 0.07 0.07 90 1018.2
20260905113556 72 255 4.0 9.0 0.06 0.06 0.06 90 1017.8
20260905113103 72 272 3.0 13.0 0.06 0.06 0.06 90 1017.6
20260905112556 72 340 4.0 13.0 0.05 0.05 0.05 90 1017.5
20260905112058 71 223 3.0 9.0 0.04 0.04 0.04 89 1017.1
20260905111646 71 261 1.0 4.0 0.04 0.04 0.04 89 1017.0
20260905111058 71 263 0.0 6.0 0.03 0.03 0.03 89 1016.9
20260905110558 71 265 1.0 6.0 0.03 0.03 0.03 89 1017.0
20260905110058 71 208 2.0 7.0 0.02 0.02 0.02 88 1017.1
20260905105559 71 133 2.0 7.0 0.02 0.02 0.02 88 1017.1
20260905105059 71 266 2.0 7.0 0.01 0.01 0.01 88 1017.1
20260905104606 71 0 1.0 5.0 0.01 0.01 0.01 88 1016.5
20260905104058 71 0 1.0 5.0 0.01 0.01 0.01 88 1016.6
20260905103559 71 103 1.0 5.0 0.00 0.00 0.00 88 1016.3
20260905103104 71 117 1.0 6.0 0.00 0.00 0.00 88 1016.0
20260905102557 71 144 3.0 8.0 0.00 0.00 0.00 88 1015.7
20260905102059 71 124 3.0 8.0 0.00 0.00 0.00 87 1015.7
20260905101610 71 117 3.0 6.0 0.00 0.00 0.00 87 1015.9
20260905101058 71 107 2.0 5.0 0.00 0.00 0.00 87 1015.7
20260905100558 71 111 1.0 6.0 0.00 0.00 0.00 87 1015.7
20260905100110 71 74 2.0 7.0 0.00 0.00 0.00 87 1015.5
20260905095558 72 98 2.0 7.0 0.00 0.00 0.00 87 1015.4
20260905095058 72 92 2.0 6.0 0.00 0.00 0.00 87 1015.1
20260905094602 72 87 1.0 3.0 0.00 0.00 0.00 87 1015.1
20260905094100 72 67 0.0 3.0 0.00 0.00 0.00 87 1015.2
20260905093558 72 0 0.0 3.0 0.00 0.00 0.00 87 1015.4
20260905093107 72 108 0.0 3.0 0.00 0.00 0.00 87 1015.2
20260905092558 72 0 0.0 3.0 0.00 0.00 0.00 86 1015.4
20260905092102 72 0 0.0 3.0 0.00 0.00 0.00 86 1015.4
20260905091604 72 0 0.0 4.0 0.00 0.00 0.00 86 1015.5
20260905091059 72 90 0.0 4.0 0.00 0.00 0.00 85 1015.5
20260905090603 73 0 1.0 4.0 0.00 0.00 0.00 85 1015.5
20260905090105 73 0 0.0 3.0 0.00 0.00 0.00 85 1015.5
20260905085601 73 73 0.0 3.0 0.00 0.00 0.00 85 1015.5
20260905085100 73 85 0.0 4.0 0.00 0.00 0.00 85 1015.6
20260905084607 73 0 0.0 4.0 0.00 0.00 0.00 84 1015.5
20260905084058 73 56 0.0 7.0 0.00 0.00 0.00 84 1015.3
20260905083602 73 0 2.0 7.0 0.00 0.00 0.00 84 1015.3
20260905083102 73 0 1.0 5.0 0.00 0.00 0.00 84 1014.8
20260905082555 74 36 0.0 6.0 0.00 0.00 0.00 84 1015.1
20260905082058 74 0 1.0 7.0 0.00 0.00 0.00 84 1015.0
20260905081600 74 65 1.0 7.0 0.00 0.00 0.00 84 1014.9
20260905081058 74 0 1.0 8.0 0.00 0.00 0.00 84 1014.4
20260905080601 74 0 1.0 8.0 0.00 0.00 0.00 84 1014.2
20260905080117 74 121 2.0 8.0 0.00 0.00 0.00 84 1014.1
20260905075558 74 98 1.0 8.0 0.00 0.00 0.00 84 1014.5
20260905075058 74 0 1.0 9.0 0.00 0.00 0.00 85 1014.7
20260905074601 74 90 1.0 9.0 0.00 0.00 0.00 85 1014.8
20260905074059 74 40 1.0 9.0 0.00 0.00 0.00 85 1014.7
20260905073558 74 67 1.0 6.0 0.00 0.00 0.00 86 1014.8
20260905073103 74 30 0.0 8.0 0.00 0.00 0.00 86 1014.9
20260905072556 74 92 1.0 8.0 0.00 0.00 0.00 86 1015.0
20260905072059 74 69 1.0 8.0 0.00 0.00 0.00 86 1015.2
20260905071601 74 120 1.0 8.0 0.00 0.00 0.00 86 1015.3
20260905071102 74 101 0.0 4.0 0.00 0.00 0.00 86 1015.4
20260905070555 74 0 0.0 4.0 0.00 0.00 0.00 86 1015.5
20260905065559 74 98 1.0 8.0 0.00 0.00 0.00 86 1015.6
20260905065058 74 0 1.0 6.0 0.00 0.00 0.00 86 1015.5
20260905064604 73 69 1.0 6.0 0.00 0.00 0.00 86 1015.5
20260905064058 73 72 0.0 6.0 0.00 0.00 0.00 86 1015.5
20260905063559 73 63 0.0 6.0 0.00 0.00 0.00 86 1015.6
20260905063104 73 0 0.0 5.0 0.00 0.00 0.00 87 1015.5
20260905062554 73 65 0.0 7.0 0.00 0.00 0.00 87 1015.6
20260905062058 73 0 0.0 7.0 0.00 0.00 0.00 87 1015.5
20260905061602 73 0 0.0 5.0 0.00 0.00 0.00 87 1015.6
20260905061100 73 60 0.0 5.0 0.00 0.00 0.00 86 1015.5
20260905060558 73 0 0.0 5.0 0.00 0.00 0.00 86 1015.6
20260905060106 73 0 0.0 3.0 0.00 0.00 0.00 86 1015.6
20260905055559 73 0 0.0 4.0 0.00 0.00 0.00 86 1015.6
20260905055056 73 0 0.0 4.0 0.00 0.00 0.00 86 1015.5
20260905054559 73 0 0.0 4.0 0.00 0.00 0.00 85 1015.5
20260905054058 73 96 0.0 4.0 0.00 0.00 0.00 85 1015.4
20260905053558 73 0 0.0 6.0 0.00 0.00 0.00 85 1015.4
20260905053124 73 90 1.0 6.0 0.00 0.00 0.00 85 1015.2
20260905052558 73 71 1.0 6.0 0.00 0.00 0.00 85 1015.1
20260905052055 73 81 0.0 6.0 0.00 0.00 0.00 85 1015.1
20260905051606 73 0 1.0 5.0 0.00 0.00 0.00 85 1015.1
20260905051058 73 0 0.0 7.0 0.00 0.00 0.00 85 1015.1
20260905050558 73 106 1.0 7.0 0.00 0.00 0.00 85 1015.0
20260905050118 73 98 0.0 4.0 0.00 0.00 0.00 85 1015.0
20260905045555 73 0 0.0 4.0 0.00 0.00 0.00 84 1015.0
20260905045056 73 65 0.0 6.0 0.00 0.00 0.00 84 1015.0
20260905044603 74 0 1.0 6.0 0.00 0.00 0.00 84 1014.9
20260905044058 74 79 0.0 6.0 0.00 0.00 0.00 84 1014.9
20260905043558 74 67 0.0 5.0 0.00 0.00 0.00 84 1014.9
20260905043110 74 98 1.0 4.0 0.00 0.00 0.00 83 1014.8
20260905042556 74 0 0.0 4.0 0.00 0.00 0.00 83 1014.8
20260905042058 74 0 0.0 6.0 0.00 0.00 0.00 83 1014.9
20260905041607 74 91 0.0 6.0 0.00 0.00 0.00 83 1014.8
20260905041056 74 49 0.0 4.0 0.00 0.00 0.00 82 1014.8
20260905040556 74 0 0.0 7.0 0.00 0.00 0.00 82 1014.8
20260905040108 74 83 0.0 7.0 0.00 0.00 0.00 82 1014.7
20260905035602 74 54 1.0 5.0 0.00 0.00 0.00 82 1014.9
20260905035058 74 0 1.0 6.0 0.00 0.00 0.00 82 1014.9
20260905034617 74 72 1.0 6.0 0.00 0.00 0.00 82 1014.8
20260905034057 74 132 1.0 7.0 0.00 0.00 0.00 82 1014.9
20260905033555 74 47 2.0 7.0 0.00 0.00 0.00 81 1015.0
20260905033119 74 110 1.0 6.0 0.00 0.00 0.00 81 1015.0
20260905032557 74 115 1.0 6.0 0.00 0.00 0.00 81 1015.0
20260905032057 74 0 0.0 4.0 0.00 0.00 0.00 81 1015.0
20260905031613 75 48 0.0 3.0 0.00 0.00 0.00 80 1015.1
20260905031056 75 0 0.0 4.0 0.00 0.00 0.00 80 1015.1
20260905030555 75 126 1.0 4.0 0.00 0.00 0.00 79 1015.0
20260905030105 75 57 0.0 4.0 0.00 0.00 0.00 79 1014.9
20260905025556 75 72 1.0 4.0 0.00 0.00 0.00 78 1014.7
20260905025058 75 83 1.0 4.0 0.00 0.00 0.00 78 1014.7
20260905024604 76 81 1.0 6.0 0.00 0.00 0.00 78 1014.7
20260905024058 76 74 0.0 6.0 0.00 0.00 0.00 77 1014.7
20260905023559 76 0 1.0 6.0 0.00 0.00 0.00 77 1014.7
20260905023127 76 82 0.0 3.0 0.00 0.00 0.00 77 1014.7
20260905022557 77 0 0.0 3.0 0.00 0.00 0.00 77 1014.7
20260905022057 77 0 0.0 1.0 0.00 0.00 0.00 77 1014.7
20260905021602 77 94 0.0 2.0 0.00 0.00 0.00 77 1014.6
20260905021058 77 0 0.0 2.0 0.00 0.00 0.00 76 1014.6
20260905020558 78 65 0.0 2.0 0.00 0.00 0.00 76 1014.5
20260905020104 78 0 0.0 2.0 0.00 0.00 0.00 76 1014.4
20260905015558 78 0 0.0 3.0 0.00 0.00 0.00 75 1014.3
20260905015055 78 0 0.0 3.0 0.00 0.00 0.00 75 1014.2
20260905014601 78 0 0.0 3.0 0.00 0.00 0.00 74 1014.1
20260905014058 79 0 0.0 2.0 0.00 0.00 0.00 73 1014.1
20260905013555 79 0 0.0 3.0 0.00 0.00 0.00 73 1014.0
20260905013106 79 81 0.0 3.0 0.00 0.00 0.00 73 1014.0
20260905012559 79 0 0.0 4.0 0.00 0.00 0.00 72 1013.9
20260905012057 80 101 0.0 4.0 0.00 0.00 0.00 72 1013.9
20260905011602 80 0 0.0 4.0 0.00 0.00 0.00 72 1013.8
20260905011101 80 0 0.0 7.0 0.00 0.00 0.00 71 1013.8
20260905010559 81 0 1.0 7.0 0.00 0.00 0.00 71 1013.8
20260905010112 81 69 0.0 5.0 0.00 0.00 0.00 70 1013.8
20260905005558 81 0 0.0 6.0 0.00 0.00 0.00 70 1013.8
20260905005101 82 0 1.0 6.0 0.00 0.00 0.00 69 1013.8
20260905004633 82 14 0.0 7.0 0.00 0.00 0.00 69 1013.8
20260905004056 82 68 1.0 7.0 0.00 0.00 0.00 68 1013.8
20260905003600 83 0 0.0 3.0 0.00 0.00 0.00 68 1013.8
20260905003120 83 94 1.0 6.0 0.00 0.00 0.00 67 1013.9
20260905002557 83 0 1.0 6.0 0.00 0.00 0.00 67 1013.7
20260905002058 83 40 1.0 4.0 0.00 0.00 0.00 67 1013.7
20260905001603 84 86 0.0 4.0 0.00 0.00 0.00 66 1013.7
20260905001055 84 57 0.0 2.0 0.00 0.00 0.00 66 1013.7
20260905000555 84 32 0.0 4.0 0.00 0.00 0.00 66 1013.6
20260905000137 84 0 0.0 7.0 0.00 0.00 0.00 65 1013.7
20260904235559 84 63 1.0 7.0 0.00 0.00 0.00 64 1013.8
20260904235058 85 329 1.0 6.0 0.00 0.00 0.00 64 1013.7
20260904234600 85 59 1.0 3.0 0.00 0.00 0.00 63 1013.7
20260904234058 85 0 0.0 8.0 0.00 0.00 0.00 63 1013.6
20260904233602 85 44 1.0 8.0 0.00 0.00 0.00 62 1013.6
20260904233103 85 0 1.0 8.0 0.00 0.00 0.00 61 1013.6
20260904232556 85 45 1.0 6.0 0.00 0.00 0.00 61 1013.6
20260904232101 85 0 1.0 5.0 0.00 0.00 0.00 60 1013.6
20260904231602 86 0 0.0 5.0 0.00 0.00 0.00 60 1013.7
20260904231058 86 121 1.0 6.0 0.00 0.00 0.00 60 1013.6
20260904230558 86 59 0.0 7.0 0.00 0.00 0.00 59 1013.7
20260904230114 86 31 1.0 7.0 0.00 0.00 0.00 59 1013.7
20260904225558 86 79 0.0 3.0 0.00 0.00 0.00 58 1013.7
20260904225055 86 9 0.0 5.0 0.00 0.00 0.00 59 1013.8
20260904224604 86 0 1.0 7.0 0.00 0.00 0.00 58 1013.9
20260904224101 86 0 1.0 7.0 0.00 0.00 0.00 58 1013.9
20260904223601 86 360 0.0 4.0 0.00 0.00 0.00 59 1014.0
20260904223102 87 5 0.0 4.0 0.00 0.00 0.00 58 1013.9
20260904222559 87 49 1.0 3.0 0.00 0.00 0.00 57 1014.0
20260904222055 87 28 1.0 5.0 0.00 0.00 0.00 55 1013.9
20260904221608 87 86 0.0 5.0 0.00 0.00 0.00 55 1014.0
20260904221058 87 43 1.0 5.0 0.00 0.00 0.00 55 1014.0
20260904220559 87 24 0.0 2.0 0.00 0.00 0.00 55 1014.0
20260904220106 87 0 0.0 4.0 0.00 0.00 0.00 53 1014.0
20260904215556 87 0 0.0 4.0 0.00 0.00 0.00 54 1013.9
20260904215056 87 17 1.0 8.0 0.00 0.00 0.00 53 1014.0
20260904214607 88 69 1.0 8.0 0.00 0.00 0.00 53 1013.9
20260904214056 88 70 2.0 6.0 0.00 0.00 0.00 52 1013.8
20260904213558 88 40 1.0 4.0 0.00 0.00 0.00 52 1013.7
20260904213102 88 24 1.0 8.0 0.00 0.00 0.00 52 1013.7
20260904212556 88 61 1.0 8.0 0.00 0.00 0.00 50 1013.7
20260904212058 88 62 1.0 8.0 0.00 0.00 0.00 52 1013.7
20260904211604 88 76 1.0 7.0 0.00 0.00 0.00 51 1013.6
20260904211055 89 27 1.0 7.0 0.00 0.00 0.00 50 1013.7
20260904210555 89 33 1.0 7.0 0.00 0.00 0.00 51 1013.7
20260904210100 89 29 1.0 7.0 0.00 0.00 0.00 51 1013.7
20260904205558 89 73 1.0 9.0 0.00 0.00 0.00 51 1013.8
20260904205057 89 355 1.0 9.0 0.00 0.00 0.00 51 1013.7
20260904204601 89 109 1.0 6.0 0.00 0.00 0.00 51 1013.7
20260904204057 89 32 1.0 8.0 0.00 0.00 0.00 49 1013.8
20260904203558 89 121 1.0 8.0 0.00 0.00 0.00 52 1013.8
20260904203104 89 136 1.0 8.0 0.00 0.00 0.00 49 1013.8
20260904202557 89 0 1.0 7.0 0.00 0.00 0.00 49 1013.9
20260904202056 90 13 2.0 5.0 0.00 0.00 0.00 46 1013.8
20260904201628 90 32 1.0 5.0 0.00 0.00 0.00 47 1013.8
20260904201055 90 34 1.0 7.0 0.00 0.00 0.00 49 1013.9
20260904200558 90 75 2.0 7.0 0.00 0.00 0.00 47 1013.8
20260904200110 90 57 1.0 5.0 0.00 0.00 0.00 47 1013.9
20260904195602 90 39 2.0 6.0 0.00 0.00 0.00 47 1013.9
20260904195057 91 76 2.0 6.0 0.00 0.00 0.00 45 1014.0
20260904194602 91 35 2.0 7.0 0.00 0.00 0.00 43 1014.0
20260904194058 91 0 1.0 8.0 0.00 0.00 0.00 44 1013.8
20260904193558 91 24 1.0 8.0 0.00 0.00 0.00 44 1013.9
20260904193104 91 20 2.0 9.0 0.00 0.00 0.00 44 1014.0
20260904192556 92 0 2.0 9.0 0.00 0.00 0.00 44 1013.9
20260904192058 91 0 2.0 9.0 0.00 0.00 0.00 44 1013.9
20260904191601 91 105 2.0 9.0 0.00 0.00 0.00 45 1013.9
20260904191100 91 65 1.0 4.0 0.00 0.00 0.00 47 1013.8
20260904190602 91 91 1.0 5.0 0.00 0.00 0.00 46 1013.9
20260904185559 91 32 1.0 6.0 0.00 0.00 0.00 49 1013.9
20260904185059 91 0 1.0 7.0 0.00 0.00 0.00 48 1014.0
20260904184604 91 24 2.0 10.0 0.00 0.00 0.00 45 1014.0
20260904184056 91 59 1.0 10.0 0.00 0.00 0.00 45 1014.0
20260904183556 90 53 2.0 10.0 0.00 0.00 0.00 44 1014.1
20260904183116 90 63 2.0 6.0 0.00 0.00 0.00 46 1014.1
20260904182555 90 75 1.0 9.0 0.00 0.00 0.00 46 1014.2
20260904182058 90 120 2.0 9.0 0.00 0.00 0.00 44 1014.1
20260904181600 90 76 1.0 6.0 0.00 0.00 0.00 45 1014.1
20260904181056 90 52 1.0 7.0 0.00 0.00 0.00 43 1014.1
20260904180558 90 351 1.0 7.0 0.00 0.00 0.00 42 1014.1
20260904180104 90 64 1.0 7.0 0.00 0.00 0.00 47 1014.1
20260904175555 90 0 1.0 7.0 0.00 0.00 0.00 48 1014.0
20260904175059 90 40 2.0 7.0 0.00 0.00 0.00 48 1014.0
20260904174608 90 30 2.0 7.0 0.00 0.00 0.00 45 1013.9
20260904174055 89 20 1.0 6.0 0.00 0.00 0.00 48 1013.8
20260904173556 89 28 2.0 6.0 0.00 0.00 0.00 44 1013.8
20260904173106 89 44 1.0 5.0 0.00 0.00 0.00 44 1013.8
20260904172556 89 74 2.0 5.0 0.00 0.00 0.00 44 1013.8
20260904172059 89 11 2.0 6.0 0.00 0.00 0.00 45 1013.7
20260904171616 89 30 1.0 6.0 0.00 0.00 0.00 45 1013.8
20260904171100 89 9 2.0 7.0 0.00 0.00 0.00 47 1013.8
20260904170555 88 40 1.0 7.0 0.00 0.00 0.00 43 1013.8
20260904170105 88 76 2.0 6.0 0.00 0.00 0.00 45 1013.6
20260904165557 88 19 1.0 8.0 0.00 0.00 0.00 50 1013.7
20260904165103 88 46 1.0 8.0 0.00 0.00 0.00 50 1013.7
20260904164623 88 33 1.0 5.0 0.00 0.00 0.00 49 1013.7
20260904164056 88 13 1.0 6.0 0.00 0.00 0.00 53 1013.7
20260904163555 88 0 2.0 6.0 0.00 0.00 0.00 51 1013.7
20260904163105 88 355 1.0 5.0 0.00 0.00 0.00 50 1013.6
20260904162555 87 0 1.0 5.0 0.00 0.00 0.00 51 1013.6
20260904162055 87 0 0.0 6.0 0.00 0.00 0.00 53 1013.6
20260904161606 87 0 1.0 6.0 0.00 0.00 0.00 53 1013.6
20260904161055 87 59 0.0 4.0 0.00 0.00 0.00 51 1013.5
20260904160556 86 5 1.0 4.0 0.00 0.00 0.00 52 1013.6
20260904155556 86 5 1.0 5.0 0.00 0.00 0.00 56 1013.5
20260904155056 85 0 1.0 5.0 0.00 0.00 0.00 56 1013.4